Location: Albany
(35.0170°S, 117.8920°E)
Time: 10:08:37
(UTC+08:00)

S-56A Canister/Altair - Pass Details

Date: 25 January 2021
Orbit: 632 x 2501 km, 38.9° (Epoch: 25 February)

Event Time Altitude Azimuth Distance (km) Brightness Sun altitude
Rises 13:08:06 0° 304° (NW) 5,323 12.1 70.8°
Reaches altitude 10° 13:11:15 10° 306° (NW) 4,528 11.9 70.4°
Maximum altitude 13:24:34 75° 28° (NNE) 2,509 11.7 68.6°
Drops below altitude 10° 13:39:46 10° 110° (ESE) 5,090 11.6 66.2°
Sets 13:43:32 0° 110° (ESE) 5,993 11.8 65.6°
